Lid_Strength_Index
-0 -0 -0 -0 -1 -1 -1 -1 -1 -1 -1 -1 -1 -1 -1 -1 -1 -1 -1 -1 -0 -1 -1 -0 -0 -1 -0 -0 -0 -0 0 0 2 1 -0 -1 -1 -1 -1 -2 -2 -2 -2
-0 -0 -0 -0 -0 -0 -0 -1 -1 -1 -1 -1 -1 -1 -1 -1 -1 -1 -0 -1 -0 -0 -0 -0 -0 -0 -1 -1 -0 -1 -0 -0 1 2 0 0 -1 -1 -2 -1 -1 -1 -2
0 0 0 -0 -0 -0 -0 -1 -1 -1 -1 -1 -1 -1 -1 -1 -1 -1 -1 -1 -0 -0 -0 -0 -0 -1 -0 -0 -0 0 -0 -0 -0 1 1 -0 -0 -1 -1 -1 -1 -2 -1
0 0 0 0 -0 -0 -1 -1 -1 -1 -1 -1 -1 -1 -1 -1 -1 -1 -1 -0 -1 -0 -1 -1 -1 -0 -1 -0 -0 -0 -0 0 0 1 1 1 0 -1 -0 1 1 -0 -0
0 1 0 0 -0 -0 -0 -0 -1 -1 -1 -1 -1 -1 -1 -1 -0 -1 -1 -0 -0 -0 -1 -1 -1 -0 1 0 -0 -1 -0 1 1 1 1 1 1 1 1 0 1 0 -0
1 1 1 0 0 -0 -0 -0 -0 -1 -1 -1 -0 -0 -0 -0 3 3 1 -0 -0 -0 -0 -0 -1 -0 0 2 3 3 1 0 1 1 1 2 1 1 0 1 1 2 2
1 1 1 0 1 0 0 -0 -0 -0 -0 -0 -0 -0 -0 -0 8 6 3 -0 -0 -0 -0 -0 -0 -0 -0 -1 2 4 4 4 3 0 1 1 1 0 0 1 1 1 2
1 1 0 0 1 2 1 0 -0 -0 -0 -0 -0 -0 1 4 9 8 5 -1 -0 -1 -1 -1 -0 -0 2 0 -0 -0 -0 -1 -1 -0 -0 -0 -1 -1 -1 -0 0 0 0
3 2 1 1 2 2 2 1 0 0 0 0 0 1 1 4 9 9 4 -1 -0 0 1 2 0 1 6 7 -0 0 0 -0 1 4 4 5 5 4 2 -0 1 2 2
4 2 0 0 0 1 1 1 0 0 1 1 3 4 6 5 9 9 5 -0 0 0 1 1 4 3 8 8 1 0 1 1 -0 -0 -0 0 2 0 5 -0 0 2 2
4 3 2 1 1 1 1 0 -0 0 0 1 2 3 4 5 7 9 8 3 2 1 0 -0 -0 7 9 9 8 0 1 2 1 -0 0 -0 -0 -0 -1 -2 -2 0 2
4 4 3 3 3 2 2 2 1 0 1 0 0 2 2 3 9 9 9 9 7 2 2 2 2 8 9 9 6 7 7 5 1 1 1 1 1 0 -0 -1 -2 -2 -1
3 4 4 3 3 2 1 0 1 0 0 1 2 2 1 2 3 6 7 8 7 4 3 5 7 8 9 6 7 7 7 -0 0 1 1 1 0 -0 -1 -1 -2 -2 -2
4 4 4 3 2 1 1 1 1 0 0 0 2 2 2 4 6 6 5 4 4 2 2 1 2 3 4 3 3 2 1 0 0 1 1 1 0 1 1 1 1 0 1
4 4 4 4 3 3 4 5 5 7 7 2 3 3 3 4 8 10 11 9 7 6 6 1 1 1 1 0 -0 -0 -0 -0 0 0 0 2 2 2 2 2 2 2 2
5 5 5 5 5 4 5 7 11 11 11 12 12 9 7 11 12 12 12 12 11 10 4 3 3 2 2 2 1 0 0 0 -0 -0 0 0 1 1 1 1 1 1 2
5 6 6 6 6 6 6 6 8 11 11 12 13 13 13 13 13 13 13 12 11 8 5 6 5 5 4 4 3 3 2 2 0 1 1 1 1 1 1 1 1 1 1
6 9 6 6 6 6 6 6 6 7 7 8 12 12 13 14 14 13 13 10 5 6 6 6 6 5 5 5 5 4 4 4 3 3 3 2 2 2 2 2 2 1 1
7 7 7 7 7 7 7 7 6 6 6 6 7 11 11 13 13 13 11 6 6 7 7 7 6 6 6 5 5 5 5 5 6 5 4 4 3 3 3 2 2 5 4
6 8 7 7 7 7 7 7 7 6 6 6 7 8 7 6 7 7 7 7 7 7 7 7 7 7 7 7 6 6 6 5 5 5 5 6 6 5 6 5 5 5 4
6 7 7 6 6 6 6 6 6 6 7 7 7 10 13 7 6 7 7 7 7 7 8 8 8 8 8 7 7 7 7 7 7 6 6 6 6 7 6 7 7 7 7
4 5 5 5 5 6 6 6 6 6 6 7 7 8 10 6 6 6 6 6 6 7 7 7 7 8 7 8 8 8 8 8 9 8 8 9 9 8 8 7 7 7 7
3 4 4 4 4 6 5 5 5 4 5 5 4 4 4 4 5 5 6 6 6 6 6 6 7 8 8 8 8 8 9 9 8 8 9 9 9 9 8 8 8 7 7
3 4 4 4 4 4 4 4 4 7 4 4 4 3 3 3 4 4 4 5 6 6 6 6 7 8 8 8 8 8 8 8 8 9 9 9 9 9 9 9 8 8 8
3 4 4 4 4 4 4 4 4 4 4 4 3 3 3 3 4 4 5 5 6 7 8 8 8 8 8 8 8 9 10 12 10 11 11 11 11 11 10 10 9 9 9
3 4 4 4 4 4 4 4 4 4 4 4 4 3 3 3 3 4 4 5 6 7 7 7 8 8 9 9 9 10 12 12 11 12 12 12 12 11 11 10 10 10 10